Estación de Colegual INIA
Ultimos registro cada 15 minutos 43
| N° | Estación | Fecha / Hora | Temperatura | Humedad | Lluvia | Velocidad | Dirección | Radiación | Presion |
| 43 | Colegual INIA | 07-05-2026 10:30 | 6,9 | 85,4 | 0 | 2 | 126 | 178 | 1005 |
| 42 | Colegual INIA | 07-05-2026 10:15 | 6,9 | 84,7 | 0 | 1,9 | 108 | 112 | 1005 |
| 41 | Colegual INIA | 07-05-2026 10:00 | 7 | 82,2 | 0 | 1,4 | 88 | 127 | 1005 |
| 40 | Colegual INIA | 07-05-2026 09:45 | 6,5 | 82,2 | 0 | 0,3 | 95 | 154 | 1005 |
| 39 | Colegual INIA | 07-05-2026 09:30 | 5,6 | 86,9 | 0 | 0,6 | 124 | 130 | 1005 |
| 38 | Colegual INIA | 07-05-2026 09:15 | 5,2 | 89 | 0 | 0,8 | 120 | 84 | 1005 |
| 37 | Colegual INIA | 07-05-2026 09:00 | 4,6 | 92,9 | 0 | 1,1 | 139 | 66 | 1005 |
| 36 | Colegual INIA | 07-05-2026 08:45 | 3,9 | 96,6 | 0 | 0,9 | 147 | 38 | 1004 |
| 35 | Colegual INIA | 07-05-2026 08:30 | 3,2 | 96,4 | 0 | 0 | 0 | 35 | 1004 |
| 34 | Colegual INIA | 07-05-2026 08:15 | 2,9 | 96,4 | 0 | 0 | 0 | 22 | 1004 |
| 33 | Colegual INIA | 07-05-2026 08:00 | 3,2 | 95,3 | 0 | 0 | 0 | 6 | 1004 |
| 32 | Colegual INIA | 07-05-2026 07:45 | 3,8 | 94,5 | 0 | 0 | 0 | 2 | 1004 |
| 31 | Colegual INIA | 07-05-2026 07:30 | 3,8 | 94,6 | 0 | 0,5 | 143 | 0 | 1004 |
| 30 | Colegual INIA | 07-05-2026 07:15 | 3,5 | 96,2 | 0 | 0 | 0 | 0 | 1004 |
| 29 | Colegual INIA | 07-05-2026 07:00 | 3,5 | 95,9 | 0 | 0,8 | 132 | 0 | 1004 |
| 28 | Colegual INIA | 07-05-2026 06:45 | 3,2 | 95,9 | 0 | 0,6 | 124 | 0 | 1004 |
| 27 | Colegual INIA | 07-05-2026 06:30 | 2,8 | 96,2 | 0 | 0 | 0 | 0 | 1004 |
| 26 | Colegual INIA | 07-05-2026 06:15 | 3,5 | 94,4 | 0 | 0 | 0 | 0 | 1004 |
| 25 | Colegual INIA | 07-05-2026 06:00 | 4,4 | 91,2 | 0 | 0 | 0 | 0 | 1004 |
| 24 | Colegual INIA | 07-05-2026 05:45 | 5,2 | 87,1 | 0 | 0 | 0 | 0 | 1004 |
| 23 | Colegual INIA | 07-05-2026 05:30 | 5,4 | 87,7 | 0 | 0,5 | 93 | 0 | 1004 |
| 22 | Colegual INIA | 07-05-2026 05:15 | 5,1 | 89,2 | 0 | 1,6 | 106 | 0 | 1004 |
| 21 | Colegual INIA | 07-05-2026 05:00 | 4,9 | 90,4 | 0 | 1,2 | 106 | 0 | 1004 |
| 20 | Colegual INIA | 07-05-2026 04:45 | 5 | 88,8 | 0 | 1,5 | 96 | 0 | 1004 |
| 19 | Colegual INIA | 07-05-2026 04:30 | 4,5 | 91,4 | 0 | 1,1 | 111 | 0 | 1003 |
| 18 | Colegual INIA | 07-05-2026 04:15 | 4,1 | 92,6 | 0 | 0,4 | 129 | 0 | 1003 |
| 17 | Colegual INIA | 07-05-2026 04:00 | 4,4 | 89,4 | 0 | 0 | 0 | 0 | 1003 |
| 16 | Colegual INIA | 07-05-2026 03:45 | 4,6 | 87,6 | 0 | 0,2 | 96 | 0 | 1003 |
| 15 | Colegual INIA | 07-05-2026 03:30 | 4,6 | 83,7 | 0 | 0,4 | 93 | 0 | 1003 |
| 14 | Colegual INIA | 07-05-2026 03:15 | 4,8 | 81,4 | 0 | 1,6 | 96 | 0 | 1003 |
| 13 | Colegual INIA | 07-05-2026 03:00 | 4,3 | 84,6 | 0 | 1 | 119 | 0 | 1003 |
| 12 | Colegual INIA | 07-05-2026 02:45 | 4,4 | 84,5 | 0 | 1,2 | 111 | 0 | 1003 |
| 11 | Colegual INIA | 07-05-2026 02:30 | 4,3 | 81,6 | 0 | 1,2 | 102 | 0 | 1003 |
| 10 | Colegual INIA | 07-05-2026 02:15 | 4,5 | 80,6 | 0 | 1 | 100 | 0 | 1002 |
| 9 | Colegual INIA | 07-05-2026 02:00 | 4,9 | 79,2 | 0 | 0,8 | 109 | 0 | 1002 |
| 8 | Colegual INIA | 07-05-2026 01:45 | 5,7 | 76,1 | 0 | 1,9 | 104 | 0 | 1002 |
| 7 | Colegual INIA | 07-05-2026 01:30 | 6,4 | 73,1 | 0 | 2,5 | 90 | 0 | 1002 |
| 6 | Colegual INIA | 07-05-2026 01:15 | 6,9 | 71,4 | 0 | 2,8 | 90 | 0 | 1002 |
| 5 | Colegual INIA | 07-05-2026 01:00 | 7,3 | 73,6 | 0 | 2,4 | 93 | 0 | 1002 |
| 4 | Colegual INIA | 07-05-2026 00:45 | 7,6 | 74,1 | 0 | 2,3 | 83 | 0 | 1001 |
| 3 | Colegual INIA | 07-05-2026 00:30 | 7,7 | 77,6 | 0 | 3 | 94 | 0 | 1001 |
| 2 | Colegual INIA | 07-05-2026 00:15 | 7,7 | 80,5 | 0 | 2,6 | 89 | 0 | 1001 |
| 1 | Colegual INIA | 07-05-2026 00:00 | 7,7 | 81,7 | 0 | 2 | 92 | 0 | 1001 |